Terminal Aerodrome Forecast
Issued by NWS Indianapolis, IN

Home | Current Version | Previous Version | Text Only | Print | Product List | Glossary On
Versions: 1 2 3 4 5 6 7 8 9 10 11 12 13 14 15 16 17 18 19 20 21 22 23 24 25 26 27 28 29
000
FTUS43 KIND 272300
TAFIND
TAF
KIND 272320Z 2800/0106 03003KT P6SM SCT150
     FM280800 09006KT P6SM BKN080
     FM281800 10009KT P6SM BKN040 OVC080
     FM010200 10007KT 5SM -SHSN OVC025=

USA.gov is the U.S. government's official web portal to all federal, state and local government web resources and services.